www.pogodaiklimat.ru
ПОГОДА в Черемхово
Время
(UTC), дата
15 27.11
18 27.11
21 27.11
00 28.11
03 28.11
06 28.11
09 28.11
12 28.11
15 28.11
18 28.11
21 28.11
00 29.11
03 29.11
06 29.11
09 29.11
12 29.11
15 29.11
18 29.11
21 29.11
00 30.11
03 30.11
06 30.11
09 30.11
12 30.11
15 30.11
18 30.11
21 30.11
00 1.12
03 1.12
06 1.12
09 1.12
12 1.12
15 1.12
18 1.12
21 1.12
00 2.12
03 2.12
06 2.12
09 2.12
12 2.12
15 2.12
18 2.12
21 2.12
00 3.12
03 3.12
06 3.12
09 3.12
12 3.12
15 3.12
18 3.12
21 3.12
00 4.12
03 4.12
06 4.12
09 4.12
Ветер
(напр.,м/с)
Видим. Явления Облачность Т
(С)
Тd
(С)
f
(%)
Тe
(С)
Тes
(С)
Комфортность P
(гПа)
Po
(гПа)
Тmin
(С)
Tmax
(С)
R
(мм)
R24
(мм)
S
(см)
З 2 н/о 9/9 600 м
[Cb cap]
-11.4 -16.3 67 -16 -16 1044.6 932.0
З 3 н/о 10/10 600 м
[Cb cap]
-11.6 -15.6 72 -18 -18 1043.2 930.7
З 3 н/о 10/10 600 м
[Cb cap]
-13.2 -16.5 76 -19 -19 1044.0 930.7
З 3 н/о в посл. час ливневой снег 10/8 600 м
[Cb cap Cs]
-14.5 -17.0 81 -21 -21 1043.0 929.3 -14.6 0.0 5
З 2 10 км осадки на расстоянии {ливн. снег} 10/6 600 м
[Cb cap Ac lent Ci sp]
-13.2 -16.4 77 -18 -18 1042.4 929.3 -14.6
З 5 50 км {ливн. снег} 8/4 600 м
[Cb cap Ac lent Ci sp]
-10.3 -16.6 60 -18 -18 1039.6 928.0
З 5 н/о 10/6 600 м
[Cb cap Ac As]
-11.7 -15.7 72 -20 -20 1040.3 928.0
З 3 н/о осадки на расстоянии {ливн. снег} 10/3 600 м
[Cb cap Ac As]
-12.6 -15.8 77 -19 -19 1039.5 926.9 -10.2 0.0
З 4 н/о осадки на расстоянии 10/0
[Ac As]
-12.5 -15.2 80 -20 -20 1040.6 928.0
З 4 н/о слаб. снег 10/0
[As op]
-12.4 -14.8 82 -20 -20 1040.6 928.0
З 6 н/о позёмок {снег} 10/3 600 м
[Cb cap As op]
-12.8 -15.1 83 -22 -22 1039.3 926.7
З 3 н/о слаб. ливневой снег 10/4 600 м
[Cb cap As trans]
-12.8 -15.4 81 -19 -19 1040.8 928.0 -12.8 0.0 6
З 5 4000 м слаб. ливневой снег 10/4 600 м
[Cb cap Ac As]
-12.1 -15.1 78 -20 -20 1040.4 928.0 -12.9
З 5 10 км осадки на расстоянии {ливн. снег, метель} 10/3 600 м
[Cb cap Ac As Cs]
-11.0 -14.5 75 -19 -19 1038.5 926.7
З 4 н/о слаб. ливневой снег 10/4 600 м
[Cb cap As trans]
-11.1 -13.4 83 -18 -18 1040.0 928.0
З 3 н/о {ливн. снег} 8/3 600 м
[Cb cap Ac lent Cs]
-12.2 -14.1 86 -18 -18 1039.9 927.5 -10.7 0.2
З 1 н/о 8/5 600 м
[Cb cap Ac cast Cs]
-14.2 -16.2 85 -17 -17 1042.9 929.3
З 2 н/о слаб. ливневой снег 10/8 600 м
[Cb cap As trans]
-13.8 -15.6 86 -19 -19 1042.7 929.3
С 1 н/о {ливн. снег} 6/3 600 м
[Cu med, cong Cs]
-16.2 -18.0 86 -19 -19 1042.3 928.0
СЗ 2 н/о осадки на расстоянии {ливн. снег} 10/10 600 м
[Cb cap]
-14.9 -16.8 85 -20 -20 1043.2 929.3 -18.6 0.0 6
З 4 10 км в посл. час ливневой снег 10/3 600 м
[Cb cap Cs]
-11.8 -14.5 80 -19 -19 1041.8 929.3
З 5
{10}
10 км позёмок {ливн. снег} 10/8 600 м
[Cb cap Cs]
-10.1 -13.5 76 -18 -18 1039.5 928.0
З 4 н/о слаб. ливневой снег {метель} 10/6 600 м
[Cb cap Cs]
-10.1 -12.9 80 -17 -17 1041.0 929.3
ЮЗ 3 н/о осадки на расстоянии {ливн. снег, метель} 10/3 600 м
[Cb cap Ac lent Cs]
-11.9 -13.6 87 -18 -18 1040.6 928.2 -9.8 0.3
З 4 н/о слаб. ливневой снег 10/4 600 м
[Cb cap As trans Cs]
-11.8 -13.7 86 -19 -19 1041.8 929.3
З 5 н/о слаб. ливневой снег 10/3 600 м
[Cb cap As trans Cs]
-12.2 -14.3 84 -20 -20 1040.5 928.0
З 6 н/о слаб. ливневой снег {метель} 10/6 600 м
[Cb cap As trans]
-12.3 -14.4 84 -21 -21 1039.1 926.7
З 6 н/о позёмок {ливн. снег} 10/4 600 м
[Cb cap Ac As Cs]
-12.3 -14.4 84 -21 -21 1040.5 928.0 -12.5 2 8
З 5
{10}
4000 м слаб. ливневой снег {метель} 10/6 600 м
[Cb cap As trans]
-11.8 -14.4 81 -20 -20 1040.3 928.0 -12.7
З 4
{10}
4000 м слаб. ливневой снег {метель} 10/8 600 м
[Cb cap As trans Cs]
-10.0 -12.3 83 -17 -17 1038.0 926.7
З 4
{10}
н/о слаб. ливневой снег {метель} 10/4 600 м
[Cb cap As trans]
-10.5 -12.2 87 -18 -18 1038.2 926.7
З 5 н/о слаб. ливневой снег {метель} 10/8 600 м
[Cb cap Ac trans]
-10.4 -12.4 85 -18 -18 1037.9 926.4 -9.9 0.3
З 6 н/о слаб. ливневой снег {метель} 10/10 600 м
[Cb cap]
-11.0 -13.3 83 -20 -20 1038.5 926.7
З 3
{10}
н/о {ливн. снег, метель} 10/10 600 м
[Cb cap]
-11.8 -13.7 86 -18 -18 1039.3 927.1
З 4 н/о слаб. ливневой снег 10/10 600 м
[Cb cap]
-12.5 -14.5 85 -20 -20 1040.6 928.0
З 4
{11}
н/о слаб. ливневой снег {метель} 10/10 600 м
[Cb cap]
-12.5 -14.6 84 -20 -20 1042.1 929.3 -12.9 0.6 8
З 6 4000 м слаб. ливневой снег {метель} 10/8 600 м
[Cb cap Cs]
-12.0 -14.6 81 -21 -21 1041.8 929.3
З 5
{11}
10 км позёмок {ливн. снег} 10/8 600 м
[Cb cap As trans]
-10.7 -13.6 79 -19 -19 1041.3 929.3
З 5 н/о позёмок {ливн. снег} 10/6 600 м
[Cb cap As op Cs]
-11.3 -13.5 84 -19 -19 1043.1 930.7
ЮЗ 5 н/о слаб. ливневой снег {метель} 10/8 600 м
[Cb cap As op]
-11.2 -13.1 86 -19 -19 1042.6 930.3 -10.5 0.2
З 5 н/о слаб. ливневой снег {метель} 10/5 600 м
[Cb cap As trans]
-11.7 -13.8 84 -20 -20 1043.3 930.7
З 5 н/о слаб. ливневой снег {метель} 10/8 600 м
[Cb cap As trans]
-11.9 -14.0 84 -20 -20 1044.8 932.0
З 5 н/о слаб. ливневой снег {метель} 10/10 600 м
[Cb cap]
-12.1 -14.5 82 -20 -20 1043.5 930.7
З 6 н/о слаб. ливневой снег {метель} 10/10 600 м
[Cb cap]
-12.2 -14.3 84 -21 -21 1043.5 930.7 -12.3 0.3 9
З 6-10
{11}
10 км позёмок {ливн. снег} 10/3 600 м
[Cb calv Ac cast Cs]
-11.8 -14.5 80 -21 -21 1041.8 929.3 -12.3
З 6
{11}
10 км позёмок {ливн. снег} 10/3 600 м
[Cb calv Ac cast Cs]
-10.4 -13.3 79 -19 -19 1039.7 928.0
З 4 н/о осадки на расстоянии 10 баллов -10.6 -14.2 75 -18 -18 1039.8 928.0
З 4 н/о {метель} 8/4 600 м
[Cb cap Cs]
-11.8 -14.8 78 -19 -19 1038.9 926.7 -10.0
З 4 н/о 6 баллов -14.2 -17.3 77 -22 -22 1040.0 926.7
З 2 н/о 3/0
[Ac lent Cs]
-17.7 -20.0 82 -23 -23 1040.0 925.3
З 1 н/о 7 баллов -17.5 -20.0 81 -20 -20 1038.5 924.0
З 2 н/о 3/0
[Ci fib]
-18.9 -21.3 81 -25 -25 1037.7 922.7 -18.9 9
ЮЗ 2 50 км 10 баллов -16.0 -19.2 76 -21 -21 1036.3 922.7 -19.3
ЮЗ 4 50 км 10 баллов -12.4 -17.6 65 -20 -20 1031.6 920.0
З 3 н/о 10 баллов -12.4 -18.0 63 -18 -18 1031.6 920.0
Местоположение метеостанции Черемхово (Забайкальский край, Россия): широта 50.58 долгота 110.10 высота над уровнем моря 884 м.
В архиве по умолчанию представлена погода в Черемхово за последнюю неделю. Архивные данные за месяц целиком и за предыдущие месяцы, начиная с января 2011 года, Вы можете получить, выбрав интересующий диапазон дат из раскрывающегося списка и нажав кнопку "Найти!".
*Определитесь, кто Вы:
Внимание! Время в таблицах - всемирное. Для получения местного времени необходимо прибавить поправку, которая равна 9 ч.
Смотрите также архив погоды в соседних городах и на ближайших метеорологических станциях:
Партнеры нашего сайта:      
Пояснения к столбцам:
  • Ветер - указаны скорость ветра в м/с - средняя за 10 мин, порывы в срок и между сроками (в фигурных скобках) и направление, откуда дует ветер: С - северный,
  • СВ - северо-восточный, В - восточный, ЮВ - юго-восточный, Ю - южный, ЮЗ - юго-западный, З - западный, СЗ - северо-западный.
  • Видимость - горизонтальная дальность видимости в метрах или километрах. При видимости от 1 до 10 км при отсутствии осадков обычно наблюдается дымка, при ухудшении видимости до 1 км и менее - туман. В сухую погоду видимость может ухудшаться дымом, пылью или мглою.
  • Явления - указаны атмосферные явления, наблюдавшиеся в срок или в последний час перед сроком; фигурными скобками обозначены явления, наблюдавшиеся между сроками (за 1-3 часа до срока); квадратными скобками обозначены град или гололедные отложения с указанием их диаметра в мм.
  • Облачность - указаны через наклонную черту общая и нижняя облачность в баллах и высота нижней границы облаков в метрах; квадратными скобками обозначены формы облаков: Ci - перистые, Cs - перисто-слоистые, Cc - перисто-кучевые, Ac - высококучевые, As - высокослоистые, Sc - слоисто-кучевые, Ns - слоисто-дождевые, Cu - кучевые, Cb - кучево-дождевые. Подробнее классификацию облаков см. в Атласе облаков (PDF).
  • T - Температура воздуха - температура, измеренная на высоте 2 м над землей.
  • Td - Температура точки росы - температура, при понижении до которой содержащийся в воздухе водяной пар достигнет насыщения.
  • f - Относительная влажность воздуха - влажноcть воздуха, измеренная на высоте 2 м над землей.
  • Te - Эффективная температура - температура, которую ощущает одетый по сезону человек в тени. Характеристика душности погоды. При расчете учитывается влияние влажности воздуха и скорости ветра на теплоощущения человека.
  • Tes - Эффективная температура на солнце - температура, которую ощущает человек, с поправкой на солнечный нагрев. Характеристика знойности погоды. Зависит от высоты солнца над горизонтом, облачности и скорости ветра. Ночью, в пасмурную погоду, а также при ветре 12 м/с и более поправка равна нулю.
  • P - Атмосферное давление - приведенное к уровню моря атмосферное давление.
  • Po - Атмосферное давление - измеренное на уровне метеостанции атмосферное давление.
  • Tmin - Минимальная температура - минимум температуры воздуха на высоте 2 м над землей.
  • Tmax - Максимальная температура - максимум температуры воздуха на высоте 2 м над землей.
  • R - Количество осадков - Количество выпавших осадков за период времени, мм. При наведении курсора мыши на число - период времени, за который выпало указанное количество осадков.
  • R24 - Количество осадков - Количество выпавших осадков за 24 часа, мм.
  • S - Снежный покров - Высота снежного покрова, см. При наведении курсора мыши на число - состояние снежного покрова и степень покрытия местности в баллах.